sat.trackr.live / text

‹ back to catalog

STARLINK-4001

NORAD 52628 · 2022-052AG

PAYLOAD ACTIVE UNKNOWN

§ Identity

Operator
Country
US
Launch date
2022-05-14
Launch site
AFETR
Launch vehicle
Mass (kg)
RCS (m²)

Purposes: comms

External: N2YO · Heavens-Above · Gunter

§ Orbital elements

Epoch: 2026-05-25T03:19:44.486976Z

Period
95.44 min
Inclination
53.2126°
Eccentricity
0.0001545
Mean motion
15.08847985 rev/d
Perigee alt
538.7 km
Apogee alt
540.8 km
Semi-major
6,917.9 km
B*
-5.0121e-5
RAAN
300.9270°
Arg perigee
95.4757°
Mean anomaly
264.6411°
Rev number
22,232

§ Raw data

STARLINK-40011 52628U 22052AG  26145.13870934 -.00001086  00000+0 -50121-4 0  99962 52628  53.2126 300.9270 0001545  95.4757 264.6411 15.08847985222327

JSON: /api/v1/satellites/52628 · /tle

For live sub-satellite position, see the globe view (requires WebGL).

§ Visibility from observer

Set your observer location to see the next 7 days of passes ≥ 10°. The values pass through the URL so the page stays shareable.

No JS? Fill the form by hand. The geolocation button needs JavaScript.